| time (UTC) | temp F | wind direction | speed MPH | gust MPH | rain 1hr in | rain 24hr in | rain mn in | humidity % | barometer mb |
| 20260902090655 | 62 | 212 | 9.0 | 13.0 | 0.00 | 0.00 | 0.00 | 1 | 1009.4 |
| 20260902085651 | 62 | 230 | 8.0 | 10.0 | 0.00 | 0.00 | 0.00 | 1 | 1009.1 |
| 20260902084631 | 62 | 211 | 10.0 | 13.0 | 0.00 | 0.00 | 0.00 | 1 | 1009.2 |
| 20260902083623 | 62 | 210 | 7.0 | 11.0 | 0.00 | 0.00 | 0.00 | 1 | 1009.2 |
| 20260902082619 | 62 | 215 | 8.0 | 10.0 | 0.00 | 0.00 | 0.00 | 1 | 1009.3 |
| 20260902081620 | 63 | 209 | 8.0 | 10.0 | 0.00 | 0.00 | 0.00 | 1 | 1009.0 |
| 20260902080632 | 64 | 214 | 8.0 | 11.0 | 0.00 | 0.00 | 0.00 | 1 | 1008.9 |
| 20260902075629 | 64 | 219 | 6.0 | 9.0 | 0.00 | 0.00 | 0.00 | 1 | 1009.1 |
| 20260902074625 | 64 | 223 | 4.0 | 8.0 | 0.00 | 0.00 | 0.00 | 1 | 1008.8 |
| 20260902073621 | 65 | 211 | 7.0 | 11.0 | 0.00 | 0.00 | 0.00 | 1 | 1008.7 |
| 20260902072617 | 65 | 236 | 5.0 | 8.0 | 0.00 | 0.00 | 0.00 | 1 | 1008.8 |
| 20260902071654 | 65 | 238 | 3.0 | 6.0 | 0.00 | 0.00 | 0.00 | 1 | 1008.7 |
| 20260902070630 | 65 | 230 | 3.0 | 5.0 | 0.00 | 0.00 | 0.00 | 1 | 1008.7 |
| 20260902065627 | 65 | 204 | 6.0 | 10.0 | 0.00 | 0.00 | 0.00 | 1 | 1008.9 |
| 20260902064642 | 65 | 226 | 8.0 | 13.0 | 0.00 | 0.00 | 0.00 | 1 | 1008.6 |
| 20260902063618 | 66 | 211 | 6.0 | 8.0 | 0.00 | 0.00 | 0.00 | 1 | 1008.5 |
| 20260902062635 | 66 | 205 | 7.0 | 11.0 | 0.00 | 0.00 | 0.00 | 1 | 1008.4 |
| 20260902060627 | 67 | 219 | 6.0 | 10.0 | 0.00 | 0.00 | 0.00 | 1 | 1007.8 |
| 20260902055626 | 67 | 214 | 8.0 | 13.0 | 0.00 | 0.00 | 0.00 | 1 | 1007.9 |
| 20260902054620 | 67 | 216 | 8.0 | 12.0 | 0.00 | 0.00 | 0.00 | 1 | 1007.8 |
| 20260902053616 | 67 | 217 | 13.0 | 17.0 | 0.00 | 0.00 | 0.00 | 1 | 1007.7 |
| 20260902052633 | 68 | 215 | 6.0 | 10.0 | 0.00 | 0.00 | 0.00 | 1 | 1007.8 |
| 20260902051629 | 68 | 213 | 9.0 | 13.0 | 0.00 | 0.00 | 0.00 | 1 | 1007.6 |
| 20260902050645 | 68 | 201 | 8.0 | 11.0 | 0.00 | 0.00 | 0.00 | 1 | 1007.5 |
| 20260902045621 | 69 | 217 | 6.0 | 9.0 | 0.00 | 0.00 | 0.00 | 1 | 1007.5 |
| 20260902044617 | 69 | 207 | 6.0 | 9.0 | 0.00 | 0.00 | 0.00 | 1 | 1007.4 |
| 20260902043633 | 69 | 224 | 3.0 | 8.0 | 0.00 | 0.00 | 0.00 | 1 | 1007.4 |
| 20260902042630 | 70 | 213 | 7.0 | 10.0 | 0.00 | 0.00 | 0.00 | 1 | 1007.0 |
| 20260902041626 | 71 | 201 | 8.0 | 11.0 | 0.00 | 0.00 | 0.00 | 1 | 1007.1 |
| 20260902040622 | 71 | 205 | 6.0 | 10.0 | 0.00 | 0.00 | 0.00 | 1 | 1007.1 |
| 20260902035618 | 71 | 215 | 7.0 | 11.0 | 0.00 | 0.00 | 0.00 | 1 | 1006.9 |
| 20260902034634 | 71 | 193 | 7.0 | 9.0 | 0.00 | 0.00 | 0.00 | 1 | 1006.6 |
| 20260902033652 | 72 | 192 | 5.0 | 9.0 | 0.00 | 0.00 | 0.00 | 1 | 1006.6 |
| 20260902032628 | 73 | 183 | 6.0 | 8.0 | 0.00 | 0.00 | 0.00 | 1 | 1006.3 |
| 20260902031623 | 73 | 208 | 6.0 | 9.0 | 0.00 | 0.00 | 0.00 | 1 | 1006.2 |
| 20260902030619 | 74 | 191 | 4.0 | 8.0 | 0.00 | 0.00 | 0.00 | 1 | 1006.1 |
| 20260902025636 | 75 | 181 | 4.0 | 6.0 | 0.00 | 0.00 | 0.00 | 1 | 1006.1 |
| 20260902024712 | 76 | 196 | 3.0 | 6.0 | 0.00 | 0.00 | 0.00 | 1 | 1005.9 |
| 20260902023647 | 77 | 203 | 7.0 | 10.0 | 0.00 | 0.00 | 0.00 | 1 | 1005.7 |
| 20260902022624 | 78 | 190 | 2.0 | 3.0 | 0.00 | 0.00 | 0.00 | 1 | 1005.9 |
| 20260902021621 | 79 | 183 | 2.0 | 4.0 | 0.00 | 0.00 | 0.00 | 1 | 1005.8 |
| 20260902020621 | 80 | 160 | 5.0 | 9.0 | 0.00 | 0.00 | 0.00 | 1 | 1005.8 |
| 20260902015633 | 80 | 98 | 2.0 | 5.0 | 0.00 | 0.00 | 0.00 | 1 | 1005.9 |
| 20260902014629 | 80 | 169 | 2.0 | 4.0 | 0.00 | 0.00 | 0.00 | 1 | 1005.8 |
| 20260902013625 | 80 | 148 | 1.0 | 2.0 | 0.00 | 0.00 | 0.00 | 1 | 1005.9 |
| 20260902012622 | 81 | 174 | 3.0 | 4.0 | 0.00 | 0.00 | 0.00 | 1 | 1005.9 |
| 20260902011617 | 82 | 165 | 3.0 | 4.0 | 0.00 | 0.00 | 0.00 | 1 | 1005.8 |
| 20260902010654 | 82 | 167 | 4.0 | 5.0 | 0.00 | 0.00 | 0.00 | 1 | 1006.0 |
| 20260902005629 | 82 | 154 | 3.0 | 6.0 | 0.00 | 0.00 | 0.00 | 1 | 1006.0 |
| 20260902004626 | 82 | 188 | 4.0 | 6.0 | 0.00 | 0.00 | 0.00 | 1 | 1006.0 |
| 20260902003622 | 82 | 180 | 3.0 | 4.0 | 0.00 | 0.00 | 0.00 | 1 | 1006.2 |
| 20260902002619 | 82 | 189 | 3.0 | 4.0 | 0.00 | 0.00 | 0.00 | 1 | 1006.2 |
| 20260902001635 | 82 | 180 | 4.0 | 5.0 | 0.00 | 0.00 | 0.00 | 1 | 1006.2 |
| 20260902000651 | 83 | 185 | 3.0 | 5.0 | 0.00 | 0.00 | 0.00 | 1 | 1006.3 |
| 20260901235628 | 83 | 33 | 1.0 | 2.0 | 0.00 | 0.00 | 0.00 | 1 | 1006.2 |
| 20260901234624 | 83 | 183 | 3.0 | 6.0 | 0.00 | 0.00 | 0.00 | 1 | 1006.4 |
| 20260901233620 | 83 | 159 | 2.0 | 3.0 | 0.00 | 0.00 | 0.00 | 1 | 1006.3 |
| 20260901232617 | 83 | 202 | 5.0 | 6.0 | 0.00 | 0.00 | 0.00 | 1 | 1006.4 |
| 20260901231632 | 83 | 222 | 3.0 | 5.0 | 0.00 | 0.00 | 0.00 | 1 | 1006.4 |
| 20260901230648 | 83 | 206 | 2.0 | 3.0 | 0.00 | 0.00 | 0.00 | 1 | 1006.6 |
| 20260901225624 | 82 | 231 | 2.0 | 4.0 | 0.00 | 0.00 | 0.00 | 1 | 1006.6 |
| 20260901224620 | 82 | 206 | 3.0 | 4.0 | 0.00 | 0.00 | 0.00 | 1 | 1006.5 |
| 20260901223617 | 81 | 205 | 4.0 | 6.0 | 0.00 | 0.00 | 0.00 | 1 | 1006.8 |
| 20260901222633 | 80 | 210 | 6.0 | 9.0 | 0.00 | 0.00 | 0.00 | 1 | 1006.8 |
| 20260901221629 | 79 | 209 | 5.0 | 9.0 | 0.00 | 0.00 | 0.00 | 1 | 1006.9 |
| 20260901220625 | 79 | 204 | 4.0 | 5.0 | 0.00 | 0.00 | 0.00 | 1 | 1007.0 |
| 20260901215621 | 80 | 185 | 5.0 | 9.0 | 0.00 | 0.00 | 0.00 | 1 | 1006.9 |
| 20260901214617 | 79 | 191 | 4.0 | 5.0 | 0.00 | 0.00 | 0.00 | 1 | 1007.2 |
| 20260901213633 | 79 | 178 | 6.0 | 9.0 | 0.00 | 0.00 | 0.00 | 1 | 1007.3 |
| 20260901212629 | 79 | 193 | 2.0 | 4.0 | 0.00 | 0.00 | 0.00 | 1 | 1007.4 |
| 20260901211625 | 78 | 135 | 0.0 | 1.0 | 0.00 | 0.00 | 0.00 | 1 | 1007.5 |
| 20260901210621 | 77 | 188 | 1.0 | 3.0 | 0.00 | 0.00 | 0.00 | 1 | 1007.7 |
| 20260901205618 | 75 | 193 | 2.0 | 4.0 | 0.00 | 0.00 | 0.00 | 1 | 1007.9 |
| 20260901204634 | 76 | 176 | 5.0 | 6.0 | 0.00 | 0.00 | 0.00 | 1 | 1007.9 |
| 20260901203631 | 75 | 189 | 2.0 | 3.0 | 0.00 | 0.00 | 0.00 | 1 | 1008.0 |
| 20260901202627 | 75 | 182 | 4.0 | 6.0 | 0.00 | 0.00 | 0.00 | 1 | 1008.2 |
| 20260901201623 | 75 | 198 | 6.0 | 10.0 | 0.00 | 0.00 | 0.00 | 1 | 1008.3 |
| 20260901200619 | 76 | 207 | 7.0 | 11.0 | 0.00 | 0.00 | 0.00 | 1 | 1008.4 |
| 20260901195636 | 74 | 204 | 6.0 | 9.0 | 0.00 | 0.00 | 0.00 | 1 | 1008.7 |
| 20260901194632 | 71 | 228 | 4.0 | 6.0 | 0.00 | 0.00 | 0.00 | 1 | 1008.7 |
| 20260901193629 | 72 | 184 | 6.0 | 7.0 | 0.00 | 0.00 | 0.00 | 1 | 1008.9 |
| 20260901192624 | 72 | 184 | 3.0 | 6.0 | 0.00 | 0.00 | 0.00 | 1 | 1009.0 |
| 20260901191621 | 72 | 175 | 3.0 | 5.0 | 0.00 | 0.00 | 0.00 | 1 | 1009.1 |
| 20260901190636 | 72 | 182 | 2.0 | 4.0 | 0.00 | 0.00 | 0.00 | 1 | 1008.8 |
| 20260901185653 | 71 | 172 | 4.0 | 6.0 | 0.00 | 0.00 | 0.00 | 1 | 1008.8 |
| 20260901184630 | 71 | 182 | 3.0 | 4.0 | 0.00 | 0.00 | 0.00 | 1 | 1008.7 |
| 20260901183645 | 70 | 186 | 3.0 | 5.0 | 0.00 | 0.00 | 0.00 | 1 | 1008.9 |
| 20260901182621 | 70 | 206 | 6.0 | 10.0 | 0.00 | 0.00 | 0.00 | 1 | 1009.0 |
| 20260901181617 | 70 | 172 | 7.0 | 10.0 | 0.00 | 0.00 | 0.00 | 1 | 1009.2 |
| 20260901180634 | 70 | 172 | 4.0 | 6.0 | 0.00 | 0.00 | 0.00 | 1 | 1008.9 |
| 20260901175630 | 70 | 205 | 3.0 | 5.0 | 0.00 | 0.00 | 0.00 | 1 | 1009.0 |
| 20260901174626 | 70 | 185 | 5.0 | 6.0 | 0.00 | 0.00 | 0.00 | 1 | 1009.2 |
| 20260901173622 | 71 | 182 | 2.0 | 3.0 | 0.00 | 0.00 | 0.00 | 1 | 1009.2 |
| 20260901172618 | 70 | 112 | 1.0 | 2.0 | 0.00 | 0.00 | 0.00 | 1 | 1009.3 |
| 20260901171634 | 71 | 161 | 2.0 | 3.0 | 0.00 | 0.00 | 0.00 | 1 | 1009.3 |
| 20260901170630 | 71 | 176 | 1.0 | 2.0 | 0.00 | 0.00 | 0.00 | 1 | 1009.1 |
| 20260901165647 | 70 | 0.0 | 0.0 | 0.00 | 0.00 | 0.00 | 1 | 1008.8 | |
| 20260901164703 | 69 | 0.0 | 0.0 | 0.00 | 0.00 | 0.00 | 1 | 1008.9 | |
| 20260901163619 | 69 | 0.0 | 0.0 | 0.00 | 0.00 | 0.00 | 1 | 1009.0 | |
| 20260901162635 | 69 | 48 | 2.0 | 2.0 | 0.00 | 0.00 | 0.00 | 1 | 1008.9 |
| 20260901161651 | 68 | 0.0 | 0.0 | 0.00 | 0.00 | 0.00 | 1 | 1009.0 | |
| 20260901160627 | 68 | 121 | 0.0 | 1.0 | 0.00 | 0.00 | 0.00 | 1 | 1009.1 |
| 20260901155624 | 69 | 0.0 | 2.0 | 0.00 | 0.00 | 0.00 | 1 | 1009.0 | |
| 20260901154619 | 68 | 54 | 1.0 | 2.0 | 0.00 | 0.00 | 0.00 | 1 | 1008.8 |
| 20260901153619 | 68 | 69 | 1.0 | 2.0 | 0.00 | 0.00 | 0.00 | 1 | 1008.8 |
| 20260901152633 | 67 | 52 | 1.0 | 2.0 | 0.00 | 0.00 | 0.00 | 1 | 1008.6 |
| 20260901151629 | 67 | 44 | 1.0 | 2.0 | 0.00 | 0.00 | 0.00 | 1 | 1008.7 |
| 20260901150625 | 66 | 0.0 | 0.0 | 0.00 | 0.00 | 0.00 | 1 | 1008.7 | |
| 20260901145641 | 65 | 0.0 | 0.0 | 0.00 | 0.00 | 0.00 | 1 | 1008.6 | |
| 20260901144618 | 64 | 320 | 2.0 | 2.0 | 0.00 | 0.00 | 0.00 | 1 | 1008.6 |
| 20260901143815 | 64 | 342 | 5.0 | 5.0 | 0.00 | 0.00 | 0.00 | 1 | 1008.5 |
| 20260901142631 | 64 | 262 | 0.0 | 2.0 | 0.00 | 0.00 | 0.00 | 1 | 1008.5 |
| 20260901141627 | 63 | 278 | 1.0 | 2.0 | 0.00 | 0.00 | 0.00 | 1 | 1008.5 |
| 20260901140623 | 63 | 190 | 3.0 | 4.0 | 0.00 | 0.00 | 0.00 | 1 | 1008.3 |
| 20260901135639 | 62 | 155 | 1.0 | 3.0 | 0.00 | 0.00 | 0.00 | 1 | 1008.2 |
| 20260901134636 | 62 | 207 | 3.0 | 4.0 | 0.00 | 0.00 | 0.00 | 1 | 1008.3 |
| 20260901133632 | 62 | 0.0 | 3.0 | 0.00 | 0.00 | 0.00 | 1 | 1008.0 | |
| 20260901132628 | 62 | 214 | 1.0 | 3.0 | 0.00 | 0.00 | 0.00 | 1 | 1008.2 |
| 20260901131625 | 63 | 202 | 2.0 | 3.0 | 0.00 | 0.00 | 0.00 | 1 | 1008.3 |
| 20260901130620 | 63 | 200 | 2.0 | 4.0 | 0.00 | 0.00 | 0.00 | 1 | 1008.3 |
| 20260901125620 | 63 | 10 | 2.0 | 3.0 | 0.00 | 0.00 | 0.00 | 1 | 1008.1 |
| 20260901124633 | 63 | 0.0 | 1.0 | 0.00 | 0.00 | 0.00 | 1 | 1007.9 | |
| 20260901123629 | 64 | 132 | 0.0 | 1.0 | 0.00 | 0.00 | 0.00 | 1 | 1007.7 |
| 20260901122624 | 64 | 270 | 1.0 | 2.0 | 0.00 | 0.00 | 0.00 | 1 | 1008.1 |
| 20260901121641 | 64 | 0.0 | 0.0 | 0.00 | 0.00 | 0.00 | 1 | 1007.9 | |
| 20260901120618 | 64 | 329 | 3.0 | 4.0 | 0.00 | 0.00 | 0.00 | 1 | 1007.9 |
| 20260901115634 | 64 | 0.0 | 1.0 | 0.00 | 0.00 | 0.00 | 1 | 1008.0 | |
| 20260901114652 | 63 | 285 | 3.0 | 4.0 | 0.00 | 0.00 | 0.00 | 1 | 1007.9 |
| 20260901113627 | 64 | 246 | 1.0 | 1.0 | 0.00 | 0.00 | 0.00 | 1 | 1008.2 |
| 20260901112623 | 64 | 0.0 | 1.0 | 0.00 | 0.00 | 0.00 | 1 | 1008.0 | |
| 20260901111621 | 64 | 17 | 0.0 | 2.0 | 0.00 | 0.00 | 0.00 | 1 | 1007.7 |
| 20260901110656 | 64 | 26 | 2.0 | 2.0 | 0.00 | 0.00 | 0.00 | 1 | 1007.9 |
| 20260901105626 | 64 | 326 | 1.0 | 1.0 | 0.00 | 0.00 | 0.00 | 1 | 1007.8 |
| 20260901104622 | 65 | 0.0 | 1.0 | 0.00 | 0.00 | 0.00 | 1 | 1008.0 | |
| 20260901103639 | 64 | 324 | 0.0 | 1.0 | 0.00 | 0.00 | 0.00 | 1 | 1008.1 |
| 20260901102635 | 64 | 330 | 1.0 | 2.0 | 0.00 | 0.00 | 0.00 | 1 | 1008.1 |
| 20260901101632 | 65 | 317 | 3.0 | 3.0 | 0.00 | 0.00 | 0.00 | 1 | 1008.2 |
| 20260901100629 | 65 | 298 | 3.0 | 4.0 | 0.00 | 0.00 | 0.00 | 1 | 1008.2 |
| 20260901095645 | 65 | 275 | 1.0 | 2.0 | 0.00 | 0.00 | 0.00 | 1 | 1008.3 |
| 20260901094621 | 65 | 301 | 4.0 | 4.0 | 0.00 | 0.00 | 0.00 | 1 | 1008.3 |
| 20260901093617 | 65 | 273 | 2.0 | 2.0 | 0.00 | 0.00 | 0.00 | 1 | |
| 20260901092634 | 65 | 309 | 2.0 | 3.0 | 0.00 | 0.00 | 0.00 | 1 | 1008.2 |
| 20260901091631 | 66 | 306 | 2.0 | 3.0 | 0.00 | 0.00 | 0.00 | 1 | 1008.1 |